Regional Weather Roundup
Issued by NWS

Home | Current Version | Previous Version | Text Only | Print | Product List | Glossary On
Versions: 1 2 3 4 5 6 7 8 9 10 11 12 13 14 15 16 17 18 19 20 21 22 23 24 25 26 27 28 29 30 31 32 33 34 35 36 37 38 39 40 41 42 43 44 45 46 47 48 49 50
000
ASUS46 KPQR 050210
RWROR

OREGON REGIONAL WEATHER ROUNDUP
NATIONAL WEATHER SERVICE PORTLAND OR
700 PM PDT SAT JUL 04 2015

NOTE: "FAIR" INDICATES FEW OR NO CLOUDS BELOW 12,000 FEET WITH
NO SIGNIFICANT WEATHER AND/OR OBSTRUCTIONS TO VISIBILITY.

ORZ001>013-050300-
NORTHWEST OREGON


CITY           SKY/WX    TMP DP  RH WIND       PRES   REMARKS
ASTORIA        SUNNY     67  56  67 W7        29.81F
NEWPORT        CLOUDY    61  57  88 NW5       29.86S FOG
PORTLAND       MOSUNNY   94  57  28 NW6       29.71F HX  92
VANCOUVER WA   SUNNY     94  51  23 NW7       29.71F HX  91
SCAPPOOSE      SUNNY     94  55  26 N9        29.71S HX  92
HILLSBORO      SUNNY     95  52  23 CALM      29.71F HX  92
AURORA         MOSUNNY   92  52  25 SW5       29.73F
MCMINNVILLE    MOSUNNY   93  53  25 S9        29.73F HX  90
SALEM          MOSUNNY   94  47  20 CALM      29.72F HX  90
CORVALLIS      PTSUNNY   84  50  30 NW12      29.77S
EUGENE         PTSUNNY   89  58  34 W9        29.77S
$$

ORZ021-028-050300-
SOUTHWEST OREGON


CITY           SKY/WX    TMP DP  RH WIND       PRES   REMARKS
NORTH BEND     MOSUNNY   61  57  88 NW7       29.85S
BROOKINGS      MOSUNNY   65  61  87 CALM      29.86S
ROSEBURG       SUNNY     94  50  22 N12       29.75S HX  91
SEXTON SUMMIT  PTSUNNY   80  52  37 VRB6      29.94S
MEDFORD        PTSUNNY  102  48  16 W9        29.73S HX  98
$$

ORZ014>016-041-050300-
COLUMBIA GORGE


CITY           SKY/WX    TMP DP  RH WIND       PRES   REMARKS
TROUTDALE      SUNNY     95  52  23 VRB5      29.69F HX  92
THE DALLES     SUNNY     97  44  16 W13G22    29.62F HX  93
$$

ORZ029>031-041-044-049-050-061>064-502-503-505>511-050300-
EASTERN OREGON


CITY           SKY/WX    TMP DP  RH WIND       PRES   REMARKS
REDMOND        PTSUNNY   85  44  23 NW16      29.84S
BEND             N/A    N/A N/A N/A MISG        N/A
PRINEVILLE     PTSUNNY   86  41  20 W14       29.85S
KLAMATH FALLS  CLOUDY    80  51  36 SE13      29.94R
LAKEVIEW       PTSUNNY   90  43  19 SW7       29.95R
HERMISTON      MOSUNNY  102  44  14 SW7       29.60F HX  98
PENDLETON      MOSUNNY   97  40  14 NW10      29.67F HX  92
JOHN DAY       PTSUNNY   87  33  14 W5        29.87R
MEACHAM        PTSUNNY   85  44  23 CALM      29.87R
LA GRANDE      PTSUNNY   90  48  24 NE5       29.78S
BAKER CITY     PTSUNNY   83  49  30 W7        29.83R
BURNS          SUNNY     94  31  10 W8        29.87F
ROME             N/A     96  31  10 N10       29.83S HX  90
ONTARIO        PTSUNNY   95  58  28 E3        29.70S HX  94
$$


USA.gov is the U.S. government's official web portal to all federal, state and local government web resources and services.